metlocid,date_time,avg_par,std_par,min_par,max_par,n_par,avg_swradin,std_swradin,min_swradin,max_swradin,n_swradin,avg_swradout,std_swradout,min_swradout,max_swradout,n_swradout,n_comments
HOEM,11/1/87,,,,,0,273.7469402,174.5476321,19.28,587.9,183,,,,,0,0
HOEM,12/1/87,,,,,0,276.2649999,169.4376539,24.96,647.59,372,,,,,0,0
HOEM,1/1/88,,,,,0,226.1209404,157.0884868,12.64,607.79,372,,,,,0,0
HOEM,2/1/88,,,,,0,119.6225287,125.6047655,0.32,491.23,348,,,,,0,0
HOEM,3/1/88,,,,,0,29.71088705,50.40666743,-0.63,268.52,372,,,,,0,29
HOEM,4/1/88,,,,,0,2.975916671,7.261101502,0,59.08,360,,,,,0,96
HOEM,5/1/88,,,,,0,0.185779566,0.168091182,0,1.27,372,,,,,0,159
HOEM,6/1/88,,,,,0,0.186666662,0.157981696,0,0.32,360,,,,,0,150
HOEM,7/1/88,,,,,0,0.282150531,0.103479615,0,0.32,372,,,,,0,44
HOEM,8/1/88,,,,,0,1.031451614,2.868743275,0,29.7,372,,,,,0,142
HOEM,9/1/88,,,,,0,14.19050002,23.51535449,-0.63,133,360,,,,,0,43
HOEM,10/1/88,,,,,0,74.80217746,91.38886273,-0.63,418.25,372,,,,,0,0
HOEM,11/1/88,,,,,0,194.8508333,145.6502234,10.75,590.22,360,,,,,0,0
HOEM,12/1/88,,,,,0,264.7327819,160.9694585,38.12,606.73,230,,,,,0,0
HOEM,1/1/89,,,,,0,213.365644,149.8531077,24.85,589.42,186,,,,,0,0
HOEM,2/1/89,,,,,0,97.10422594,107.0000123,0.21,422.88,168,,,,,0,0
HOEM,3/1/89,,,,,0,34.07881708,48.45044321,-0.74,239.03,186,,,,,0,20
HOEM,4/1/89,,,,,0,3.433277755,6.93072194,0,46.65,180,,,,,0,53
HOEM,5/1/89,,,,,0,0.184032252,0.069316187,0,0.21,186,,,,,0,23
HOEM,6/1/89,,,,,0,0.20766666,0.022074024,0,0.21,180,,,,,0,2
HOEM,7/1/89,,,,,0,0.167096769,0.084898419,0,0.21,186,,,,,0,38
HOEM,8/1/89,,,,,0,1.014892456,2.344081259,0,17.27,186,,,,,0,9
HOEM,9/1/89,,,,,0,11.78466662,19.60227399,-0.74,108.25,180,,,,,0,29
HOEM,10/1/89,,,,,0,82.1887634,93.44594867,-0.74,363.17,186,,,,,0,0
HOEM,11/1/89,,,,,0,188.1952776,136.4673633,13.48,549.39,180,,,,,0,0
HOEM,12/1/89,,,,,0,296.2116129,171.9839578,37.17,604.83,186,,,,,0,0
HOEM,1/1/90,,,,,0,230.4233326,154.6871705,17.27,591.57,186,,,,,0,0
HOEM,2/1/90,,,,,0,118.8614887,106.2037868,1.16,388.76,168,,,,,0,0
HOEM,3/1/90,,,,,0,31.49112885,46.20218933,-0.74,205.86,186,,,,,0,15
HOEM,4/1/90,,,,,0,2.907277728,5.929051925,0,40.01,180,,,,,0,48
HOEM,5/1/90,,,,,0,0.138333329,0.126191257,0,1.16,186,,,,,0,68
HOEM,6/1/90,,,,,0,0.144666662,0.097490292,0,0.21,180,,,,,0,56
HOEM,7/1/90,,,,,0,0.196451607,0.051729966,0,0.21,186,,,,,0,12
HOEM,8/1/90,,,,,0,0.998010736,2.323575716,0,17.27,186,,,,,0,24
HOEM,9/1/90,,,,,0,10.53594437,15.34553879,0,74.13,180,,,,,0,7
HOEM,10/1/90,,,,,0,82.33193577,94.19922615,0.21,400.13,186,,,,,0,0
HOEM,11/1/90,,,,,0,220.1856107,150.0973339,14.42,556.5,180,,,,,0,0
HOEM,12/1/90,,,,,0,291.1024184,167.3477566,44.75,601.99,186,,,,,0,0
HOEM,1/1/91,,,,,0,239.2902684,155.9959,36.22,602.94,186,,,,,0,0
HOEM,2/1/91,,,,,0,117.8798211,110.8564086,0.21,413.4,168,,,,,0,0
HOEM,3/1/91,,,,,0,31.30155909,48.84878597,-0.74,274.09,186,,,,,0,16
HOEM,4/1/91,,,,,0,2.409833293,4.715877391,0,32.43,180,,,,,0,59
HOEM,5/1/91,,,,,0,0.152473114,0.143986901,0,1.16,186,,,,,0,60
HOEM,6/1/91,,,,,0,0.10733333,0.105266883,0,0.21,180,,,,,0,88
HOEM,7/1/91,,,,,0,0.164838705,0.086513398,0,0.21,186,,,,,0,40
HOEM,8/1/91,,,,,0,0.940161272,2.002275827,0,13.48,186,,,,,0,12
HOEM,9/1/91,,,,,0,12.9346667,18.75767218,-0.74,77.92,180,,,,,0,18
HOEM,10/1/91,,,,,0,80.11075279,85.73978051,-0.74,339.48,186,,,,,0,0
HOEM,11/1/91,,,,,0,204.4570005,135.4874322,8.74,510.07,180,,,,,0,0
HOEM,12/1/91,,,,,0,230.5648921,147.2546927,13.48,591.66,186,,,,,0,0
HOEM,1/1/92,,,,,0,180.055806,123.6996845,20.11,555.55,186,,,,,0,0
HOEM,2/1/92,,,,,0,127.8200573,111.317842,1.16,395.4,174,,,,,0,0
HOEM,3/1/92,,,,,0,32.21634409,46.53839952,-0.74,228.6,186,,,,,0,18
HOEM,4/1/92,,,,,0,3.620055512,7.105621028,0,29.59,180,,,,,0,10
HOEM,5/1/92,,,,,0,0.206612897,0.026525472,0,0.21,186,,,,,0,3
HOEM,6/1/92,,,,,0,0.177333328,0.076323332,0,0.21,180,,,,,0,28
HOEM,7/1/92,,,,,0,0.14225806,0.098432347,0,0.21,186,,,,,0,60
HOEM,8/1/92,,,,,0,0.906827937,2.182848617,0,13.48,186,,,,,0,28
HOEM,9/1/92,,,,,0,14.15727775,19.61062122,-0.74,88.34,180,,,,,0,8
HOEM,10/1/92,,,,,0,78.68865606,92.21434494,0.21,382.13,186,,,,,0,0
HOEM,11/1/92,,,,,0,217.5405555,143.803095,22.95,525.23,180,,,,,0,0
HOEM,12/1/92,,,,,0,279.9727958,158.8614679,0,610.52,186,,,,,0,0
HOEM,1/1/93,,,,,0,236.9834403,150.4024027,21.06,583.04,186,,,,,0,0
HOEM,2/1/93,,,,,0,122.9007738,106.1326376,0.21,372.65,168,,,,,0,0
HOEM,3/1/93,,,,,0,30.56091399,40.29008004,-0.74,217.23,186,,,,,0,13
HOEM,4/1/93,,,,,0,3.220777758,6.613214987,0,46.65,180,,,,,0,23
HOEM,5/1/93,,,,,0,0.209999993,0,0.21,0.21,186,,,,,0,0
HOEM,6/1/93,,,,,0,0.169166661,0.083344038,0,0.21,180,,,,,0,35
HOEM,7/1/93,,,,,0,0.185161285,0.068000203,0,0.21,186,,,,,0,22
HOEM,8/1/93,,,,,0,0.929946218,2.298400709,0,14.42,186,,,,,0,3
HOEM,9/1/93,,,,,0,15.3492777,22.52136561,0,99.72,180,,,,,0,6
HOEM,10/1/93,,,,,0,80.7319357,92.03340001,0.21,369.81,186,,,,,0,0
HOEM,11/1/93,,,,,0,189.8330547,139.0461257,11.58,558.5,180,,,,,0,0
HOEM,12/1/93,590.0056343,334.2712008,74.4,1639.7,1899,318.4509153,175.3484116,34.4,923,1909,97.28651869,60.78202861,18.4,454.1,1899,1899
HOEM,1/1/94,599.4169842,337.5253331,54.8,1432.8,2414,325.7347558,175.2725188,20.5,796,2414,79.43989179,35.2697052,9,148.7,2414,2294
HOEM,2/1/94,250.3848206,240.94026,1.2,959.3,224,144.6187504,125.2121566,0,459.1,224,81.17901776,79.82926416,0,364.4,224,0
HOEM,3/1/94,87.23790331,120.9967209,0,546.1,248,40.36290321,63.86563238,0,291.5,248,18.203629,31.76446501,0,135.9,248,0
HOEM,4/1/94,10.06791666,22.87615959,0,132.3,240,2.162916655,9.993985557,0,71.5,240,0.207916668,0.753221703,0,6.8,240,0
HOEM,5/1/94,0.012903226,0.1017799,0,0.9,248,0.000806452,0.012700013,0,0.2,248,0,0,0,0,248,0
HOEM,6/1/94,0,0,0,0,240,0.004583333,0.041162925,0,0.4,240,0.009166667,0.068450677,0,0.7,240,0
HOEM,7/1/94,0,0,0,0,248,0.004032258,0.063500064,0,1,248,0.029032259,0.31922838,0,4.8,248,0
HOEM,8/1/94,1.753225804,5.575182613,0,38.1,248,0.223790326,1.842381929,0,26.7,248,0.014919355,0.166103211,0,2.5,248,0
HOEM,9/1/94,36.56208317,54.1736157,0,288.4,240,21.54583317,33.94154901,0,163.7,240,6.755833314,15.22973464,0,67.1,240,0
HOEM,10/1/94,181.8955643,191.0453178,0,854,248,90.32540293,104.2171288,0,393.8,248,47.39072573,68.46096187,0,318.4,248,0
HOEM,11/1/94,506.0633395,336.3812794,27.4,1371.8,1012,247.4581027,155.8124034,1.1,678.3,1012,86.22905113,61.32121504,0,331.5,1012,0
HOEM,12/1/94,562.7940852,327.1534525,86.8,1416.1,2232,289.7480289,151.5246425,34.4,726,2232,87.83794821,48.35884807,0,206.2,2232,0
HOEM,1/1/95,505.7022879,334.1692567,44,1315.1,2229,256.313549,163.5362556,0,641.4,2229,73.43526255,51.2995975,0,201.2,2229,0
HOEM,2/1/95,275.1486111,283.7306975,0,1045.7,2016,130.4669147,140.4833738,0,513.3,2016,41.04925597,48.97004568,0,266.6,2016,0
HOEM,3/1/95,83.35663078,120.4517713,0,690.6,2232,35.78248227,60.6521638,0,345.3,2232,22.21612911,38.24920637,0,188.1,2232,0
HOEM,4/1/95,9.470231497,20.44058031,0,118.3,2160,2.688750001,10.17167135,0,69,2160,0.387037034,2.727997726,0,66.1,2160,0
HOEM,5/1/95,0.016756273,0.135121699,0,2.3,2232,0.055421147,0.560245198,0,12.1,2232,0.046415771,0.393328113,0,7.6,2232,0
HOEM,6/1/95,0,0,0,0,2160,0.027314815,0.381076479,0,13,2160,0.043564815,0.400029264,0,8.4,2160,0
HOEM,7/1/95,0,0,0,0,2232,0.003942652,0.090680244,0,3.5,2232,0.004435484,0.074750712,0,1.7,2232,0
HOEM,8/1/95,2.149551967,7.366593255,0,74.9,2232,1.071953405,6.794087511,0,69.1,2232,0.358378136,3.499971388,0,66.2,2232,0
HOEM,9/1/95,43.2647222,68.56304302,0,378.7,2160,23.0094443,37.54400069,0,207,2160,7.423749967,17.72363054,0,67.1,2160,0
HOEM,10/1/95,193.062052,225.4085726,0,939,2232,87.3842742,113.0834358,0,413.6,2232,24.65985688,39.82869147,0,142.9,2232,0
HOEM,11/1/95,458.0368851,336.9333034,21.6,1524.7,2215,225.6931831,166.7761968,0,777,2215,75.30451451,55.3126524,0,323.4,2215,0
HOEM,12/1/95,623.370228,365.2510306,39.8,1808.4,2976,298.9379704,182.3841902,14.5,896,2976,62.46871637,34.94142094,2.5,170.3,2976,0
HOEM,1/1/96,501.3656752,331.610462,43.7,1628,2957,235.647582,164.8895497,12.9,806,2957,48.06012848,31.26653857,3.4,164,2957,0
HOEM,2/1/96,300.6624281,294.6819735,0.1,1209.1,2784,141.642888,149.6033061,0.3,593.4,2784,27.26558912,26.71173388,0,113.1,2784,0
HOEM,3/1/96,74.3849798,112.6117688,0,745.6,2976,30.66411288,53.49986763,0,375.8,2976,13.68561829,26.29701797,0,180.7,2976,879
HOEM,4/1/96,8.235347227,18.27954427,0,125.1,2880,2.79892361,6.476187338,0,56.7,2880,0.642430556,1.349042215,0,11.3,2880,1799
HOEM,5/1/96,0.00530914,0.06655033,0,1,2976,0.008635753,0.067731703,0,0.9,2976,0.005645161,0.043173138,0,0.6,2976,2820
HOEM,6/1/96,0,0,0,0,2880,0.000104167,0.003226365,0,0.1,2880,0.001145833,0.012167335,0,0.2,2880,2837
HOEM,7/1/96,0,0,0,0,2976,0.000302419,0.006603483,0,0.2,2976,0.000604839,0.008961379,0,0.2,2976,2952
HOEM,8/1/96,2.219892475,7.57426121,0,51.4,2976,0.937735217,3.226779355,0,28.9,2976,0.280510753,0.90276692,0,7.8,2976,2286
HOEM,9/1/96,38.79902774,60.42320826,0,426.7,2880,13.86100693,26.44670501,0,225.2,2880,3.20704861,6.07552578,0,48.5,2880,1213
HOEM,10/1/96,205.692977,241.2995399,0,1049.6,2976,93.95010087,121.8339188,0,530.5,2976,33.61532254,44.75483133,0,186.7,2976,216
HOEM,11/1/96,482.9423263,357.2491541,18.4,1549.8,2880,232.2995141,180.5544248,5.4,799,2880,61.91065973,44.91059482,1.8,278.5,2880,0
HOEM,12/1/96,641.1165997,368.5243213,77.8,1694.8,2976,308.5267475,183.150023,31.6,844,2976,70.36098782,38.61055683,6.3,268.3,2976,0
HOEM,1/1/97,503.9969069,352.963952,27.7,1617.9,2974,233.0320445,172.4958109,9.9,795,2974,56.32383992,41.62662737,3.3,302.2,2974,0
HOEM,2/1/97,297.7135788,295.2375986,0.8,1093.1,2688,140.134933,149.9871161,0.2,533.6,2688,39.99308039,43.90136969,0.1,208.6,2688,0
HOEM,3/1/97,77.69690853,122.7887339,0,687.5,2976,31.7295699,61.36419381,0,345.5,2976,13.03397175,22.74848615,0,161.9,2976,840
HOEM,4/1/97,8.247500018,17.96442982,0,99.6,2880,2.840555558,6.412917436,0,41.2,2880,1.134375001,2.66542819,0,24.2,2880,1803
HOEM,5/1/97,0.01197422,0.107138032,0,1.5,2948,0.009090909,0.066612147,0,0.9,2948,0.006750339,0.04752321,0,0.8,2948,2835
HOEM,6/1/97,0,0,0,0,2880,0,0,0,0,2880,0.000798611,0.008902295,0,0.1,2880,2814
HOEM,7/1/97,0,0,0,0,2948,0,0,0,0,2948,0.000305292,0.005517816,0,0.1,2948,2929
HOEM,8/1/97,2.242540324,7.501042944,0,57.8,2976,0.869354839,2.89905723,0,23.1,2976,0.324731183,1.045573269,0,8.4,2976,2337
HOEM,9/1/97,40.73291663,63.85114824,0,416.7,2880,15.80288196,28.73166171,0,216.1,2880,5.224965274,8.841620486,0,52.1,2880,1286
HOEM,10/1/97,192.0613575,221.4280885,0,1011.2,2976,86.50127682,108.5233283,0,488.6,2976,19.88151882,24.05938103,0,129.4,2976,241
HOEM,11/1/97,403.2198818,327.7533137,16.5,1316,2872,190.3342272,163.7545816,6.3,658.2,2872,42.15473534,34.24602961,1.5,147.9,2872,2
HOEM,12/1/97,552.019019,346.4477415,36.3,1568.9,2976,267.1349799,173.8207141,14,796,2976,67.306082,41.30390203,3.6,314.5,2976,0
HOEM,1/1/98,505.491633,337.5738908,46,1501.2,2976,240.8539314,167.9346703,19.2,747,2976,67.81418005,55.90731087,4.7,416,2976,0
HOEM,2/1/98,265.4865327,271.6574542,0,1523.3,2688,111.5423734,129.2540621,0.1,768,2688,63.21551334,74.41943898,0,394.7,2688,0
HOEM,3/1/98,82.01499832,126.5110669,0,682.4,2947,35.58361041,63.55412588,0,342.3,2947,20.02941972,32.65672613,0,202.1,2947,0
HOEM,4/1/98,5.730416668,11.62323875,0,76.5,2880,1.881736112,4.020588691,0,37.6,2880,2.7775,7.969351726,0,87.5,2880,0
HOEM,5/1/98,0.016733871,0.121152245,0,1,2976,0.007526882,0.052472956,0,0.6,2976,0.006418011,0.037337508,0,0.4,2976,0
HOEM,6/1/98,0,0,0,0,2880,0,0,0,0,2880,0.000208333,0.00456039,0,0.1,2880,0
HOEM,7/1/98,0,0,0,0,2976,0,0,0,0,2976,6.72E-05,0.002591944,0,0.1,2976,0
HOEM,8/1/98,2.135147848,7.371750368,0,57.2,2976,0.874697584,2.937911282,0,25.3,2976,0.436357528,1.257470601,0,7.5,2976,0
HOEM,9/1/98,41.00579862,68.69016178,0,497.3,2880,16.08638886,30.03804902,0,253.6,2880,9.580798617,16.96021937,0,118.5,2880,0
HOEM,10/1/98,211.3888444,245.3027773,0,1019.8,2976,95.77856165,120.371125,0,494.4,2976,30.7330309,36.41376865,0,205.1,2976,0
HOEM,11/1/98,497.1284475,368.2912463,32.6,1361.6,2879,238.3110107,182.3150023,9.1,667.4,2879,63.94678699,44.90741949,3,156.4,2879,0
HOEM,12/1/98,700.9435477,394.5118708,66,1755.6,2976,342.009745,191.4337687,25.5,874,2976,83.94183467,40.04173481,6.4,197.6,2976,0
HOEM,1/1/99,499.5424391,346.5861974,39.5,1814.4,2976,234.1452955,169.3325295,14.7,898,2976,52.29936157,35.29836785,3.4,197.7,2976,0
HOEM,2/1/99,295.8638395,295.3512823,0,1245.4,2688,138.0358631,147.1333694,0.2,609,2688,39.41636909,44.48686177,0.4,288.1,2688,172
HOEM,3/1/99,84.42187503,130.3317961,0,750.8,2976,33.60050401,59.70171416,0,383.8,2976,20.97200942,40.49006124,0,252.8,2976,1271
HOEM,4/1/99,10.19427083,23.44714078,0,162.2,2880,3.958472215,9.946370124,0,83.1,2880,1.830208333,4.166371257,0,32.2,2880,1889
HOEM,5/1/99,0.013608871,0.126409818,0,2,2976,0.010450269,0.076179789,0,0.9,2976,0.004569893,0.032164752,0,0.4,2976,2813
HOEM,6/1/99,0,0,0,0,2880,0,0,0,0,2880,0.000173611,0.004163771,0,0.1,2880,2805
HOEM,7/1/99,0,0,0,0,2976,0,0,0,0,2976,0.000100806,0.003173936,0,0.1,2976,2918
HOEM,8/1/99,2.418044357,8.116698866,0,53.3,2976,0.848286292,2.794355137,0,21.7,2976,0.500907258,1.497065762,0,10.9,2976,2381
HOEM,9/1/99,40.46371526,66.28163844,0,395.4,2880,16.01288194,28.06430967,0,189.5,2880,11.79041668,24.89530351,0,158.5,2880,1711
HOEM,10/1/99,199.7102184,244.4060577,0,982.8,2975,90.4287059,121.9535261,0,474.1,2975,24.58729409,30.0806197,0,132.2,2975,235
HOEM,11/1/99,453.8277778,346.7088093,8.7,1555.6,2880,213.107604,169.5668848,2.2,763,2880,49.48062503,36.26726678,0.6,155.1,2880,0
HOEM,12/1/99,631.5488564,363.1015275,46.7,1776.8,2974,314.9234699,181.258408,17.3,822,2974,72.84040337,37.49498217,4.1,189.9,2975,4
HOEM,1/1/00,557.1038979,361.4873355,64.4,1687.6,2976,285.6531921,187.1645522,20.9,865,2976,61.34674061,36.78665143,4.9,170.9,2976,19
HOEM,2/1/00,289.065481,293.9689691,0,1246.8,2784,145.3593749,156.9030267,0.2,681.4,2784,29.24364225,29.91966698,0.1,133.1,2784,0
HOEM,3/1/00,80.66589388,123.0079878,0,695.1,2976,37.00047054,64.89683324,0,357.9,2976,11.08551748,17.6569176,0,102.5,2976,1116
HOEM,4/1/00,9.167430542,21.10461726,0,164.9,2880,3.953715278,9.815113711,0,88.6,2880,1.85142361,5.417392974,0,62.8,2880,1754
HOEM,5/1/00,0.003830645,0.058715468,0,1.1,2976,0.008400538,0.067637161,0,0.8,2976,0.001310484,0.014021462,0,0.2,2976,2755
HOEM,6/1/00,0,0,0,0,2880,0,0,0,0,2880,6.94E-05,0.002634774,0,0.1,2880,2812
HOEM,7/1/00,0,0,0,0,2976,0,0,0,0,2976,0.00047043,0.007318479,0,0.2,2976,2866
HOEM,8/1/00,2.681919944,8.445698837,0,73.9,2948,1.122761194,3.373419659,0,37,2948,0.281614654,0.75692561,0,7.3,2948,2264
HOEM,9/1/00,35.06822913,53.47585612,0,440.8,2880,12.82604167,25.39081451,0,239.3,2880,3.624027783,7.058582309,0,72.8,2880,1265
HOEM,10/1/00,207.9469759,245.3900097,0,1156.4,2976,103.7794691,132.0945433,0,636.8,2976,23.32762096,29.41198208,0,137,2976,177
HOEM,11/1/00,415.8562888,322.2287725,23.7,1290.5,2878,210.1786658,168.3489134,9.8,675.2,2878,50.18930183,38.90870073,2.4,175.6,2879,44
HOEM,12/1/00,626.8877683,368.053476,44.8,1706.1,2976,323.8852485,190.1235531,18.2,897,2976,73.94768141,40.23724841,3.7,188,2976,0
HOEM,1/1/01,528.3201613,359.7403964,61.1,1558,2976,271.2356517,189.113703,17.3,815,2976,61.52903223,40.42330618,3.7,186.9,2976,0
HOEM,2/1/01,287.6322916,290.4334693,1.1,1275.4,2688,144.0511161,154.8116499,0.3,688.6,2688,28.89973957,30.06318186,0,132.5,2688,0
HOEM,3/1/01,83.55920694,132.7056334,0,750.1,2976,38.77402551,72.84074352,0,411.9,2976,9.91283603,17.79342841,0,120,2976,825
HOEM,4/1/01,7.302187517,15.60033844,0,104.3,2880,2.678298614,6.010192049,0,52.9,2880,1.76916667,5.140046412,0,50,2880,1720
HOEM,5/1/01,0.019892473,0.141969776,0,2.1,2976,0.013911291,0.071441515,0,0.8,2976,0.002587366,0.022529736,0,0.3,2976,2255
HOEM,6/1/01,3.47E-05,0.00186339,0,0.1,2880,0.002222222,0.016309121,0,0.2,2880,0,0,0,0,2880,2411
HOEM,7/1/01,0.001612903,0.033165022,0,1,2976,0.002620968,0.019742515,0,0.2,2976,0,0,0,0,2976,2639
HOEM,8/1/01,2.601444887,8.70480177,0,78.9,2976,1.088272849,3.641019351,0,38.8,2976,0.608770161,1.892618222,0,17.3,2976,1937
HOEM,9/1/01,44.65482636,69.74572889,0,390.5,2880,18.27836806,32.82812767,0,220.1,2880,5.005659717,8.406882784,0,50.8,2880,1073
HOEM,10/1/01,206.5469758,244.1972734,0,1170.7,2976,103.2352151,132.4456447,0,622.7,2976,21.97647849,27.70622594,0,129.5,2976,171
HOEM,11/1/01,484.7912502,351.9887196,35.7,1384.7,2880,248.3749999,183.2779293,11.2,718,2880,53.93399311,38.02968955,2.6,148.9,2880,0
HOEM,12/1/01,662.7189185,368.7103766,45.4,1684.2,2976,338.7662296,187.0452195,17.7,873,2976,79.59102519,38.85959462,4,208.9,2975,1
HOEM,1/1/02,548.9203328,373.6367915,40.9,1497.5,2946,269.315645,187.0710878,16.7,766,2946,61.84148678,44.66777234,3.6,466.9,2946,54
HOEM,2/1/02,269.1546873,269.0099967,0,1260,2688,124.5896207,132.0626044,0.2,606.2,2688,25.94631698,26.60927825,0.1,126.9,2688,0
HOEM,3/1/02,82.42143821,128.3819292,0,793.7,2976,34.8596774,61.79302949,0,378.5,2976,10.77594085,19.70547435,0,156,2976,880
HOEM,4/1/02,8.991701384,19.00926896,0,122.5,2880,2.996180553,6.537067138,0,60.4,2880,0.820138889,1.750818985,0,14.3,2880,1680
HOEM,5/1/02,0.009408602,0.097629999,0,1.6,2976,0.010853495,0.061519779,0,0.8,2976,0.001041667,0.011402062,0,0.2,2976,2619
HOEM,6/1/02,0,0,0,0,2880,0.001145833,0.013260145,0,0.3,2880,0.000104167,0.004166088,0,0.2,2880,2622
HOEM,7/1/02,6.72E-05,0.002591944,0,0.1,2976,0.004737903,0.028657324,0,0.4,2976,0.000168011,0.006078368,0,0.3,2976,2434
HOEM,8/1/02,2.200672044,7.239851851,0,62,2976,0.982762096,3.34069613,0,33.5,2976,0.308501344,1.011519349,0,8.8,2976,2084
HOEM,9/1/02,35.15347222,58.62187801,0,419.4,2880,13.87347224,27.31723309,0,213.1,2880,5.746493055,9.372795547,0,69.2,2880,1468
HOEM,10/1/02,203.7919019,234.6629066,0,981.2,2976,93.94495967,115.2435214,0,483.1,2976,35.55887099,45.43160883,0,248.2,2976,225
HOEM,11/1/02,476.7153469,347.9661124,13,1468.2,2880,227.1328123,170.0125837,5.3,718,2880,81.24163196,70.54602417,1.7,421.6,2880,71
HOEM,12/1/02,617.4658936,367.0590211,23.3,1861.4,2976,305.4977489,180.9915991,8.3,999,2976,70.67170701,39.41315157,1.8,333.8,2976,2
HOEM,1/1/03,473.2023187,363.7518844,26.9,1740.8,2976,235.5605174,187.4574395,9.3,915,2976,49.54385076,36.96906957,2.5,182.1,2976,1
HOEM,2/1/03,302.857403,303.3577254,0.8,1297.7,2688,151.4232885,157.1550489,0.3,701,2688,34.69534972,35.45493412,0,275.8,2688,0
HOEM,3/1/03,86.64284284,129.4316756,0,1001.9,2976,40.62066528,69.89836972,0,526.8,2976,24.3982527,43.94766402,0,236.7,2976,1018
HOEM,4/1/03,8.173506949,18.60528663,0,133.1,2880,2.936249997,7.351095265,0,81.2,2880,2.743020835,6.42253652,0,57.1,2880,2130
HOEM,5/1/03,0.01155914,0.118962415,0,1.6,2976,0.011525538,0.068094532,0,1,2976,0.008131721,0.052638653,0,0.8,2976,2734
HOEM,6/1/03,0,0,0,0,2880,0.001631944,0.014936823,0,0.2,2880,6.94E-05,0.002634774,0,0.1,2880,2643
HOEM,7/1/03,0,0,0,0,2976,0.001848118,0.015555111,0,0.2,2976,3.36E-05,0.001833089,0,0.1,2976,2675
HOEM,8/1/03,2.081081984,7.130048231,0,52.4,2976,0.835551076,2.779819148,0,26.1,2976,0.383501344,1.125628105,0,9,2976,2385
HOEM,9/1/03,39.28805557,63.50732893,0,438.1,2880,17.2023611,31.17790305,0,242.3,2880,7.925034707,15.09412913,0,90.1,2880,1207
HOEM,10/1/03,198.7654906,243.1218628,0,1076.2,2976,100.9380376,133.6418417,0,560.5,2976,25.42432794,32.36597495,0,172.3,2976,238
HOEM,11/1/03,449.6708332,335.5339127,21.4,1341.5,2880,233.2819444,177.3567098,10,694.5,2880,51.86822915,38.34763669,2.3,243.2,2880,0
HOEM,12/1/03,640.2905234,375.327635,47.7,1969.7,2976,320.1010076,185.8574888,20.3,1022,2976,83.44966399,56.19069801,4.1,467.1,2976,21
HOEM,1/1/04,557.6625883,374.4979154,65.8,1497.4,2975,280.8686387,192.5391626,18.7,753,2975,55.59647056,36.18454833,3.3,142.6,2975,1
HOEM,2/1/04,298.4047772,296.6061704,0,1215.8,2784,149.6278017,159.2000344,0.3,632.4,2784,34.6803161,40.38241068,0.1,251.6,2784,11
HOEM,3/1/04,83.49952954,128.760904,0,708.7,2976,38.87187501,70.1471084,0,374.7,2976,18.60934139,32.10848029,0,196.3,2976,888
HOEM,4/1/04,8.911180547,20.16795865,0,125,2880,3.673194435,9.112638295,0,66.2,2880,1.770104168,4.421274465,0,36.1,2880,1698
HOEM,5/1/04,0.030208333,0.184194152,0,2.3,2976,0.01780914,0.095927347,0,1,2976,0.005981183,0.036454346,0,0.5,2976,2423
HOEM,6/1/04,0.000972222,0.021227344,0,0.7,2880,0.001284722,0.013507058,0,0.2,2880,3.47E-05,0.00186339,0,0.1,2880,2271
HOEM,7/1/04,0.004805108,0.04899421,0,0.8,2976,0.004166667,0.025591053,0,0.3,2976,3.36E-05,0.001833089,0,0.1,2976,2862
HOEM,8/1/04,2.108366932,6.438397971,0,48.3,2976,0.981787636,2.853197702,0,25.3,2976,0.318077958,1.406086095,0,18.8,2976,2217
HOEM,9/1/04,41.89152781,64.7847949,0,417.1,2880,19.5984028,34.14467654,0,251.2,2880,10.2976389,17.10216938,0,96.4,2880,1299
HOEM,10/1/04,203.9623657,238.4699075,0,1020,2976,103.3139448,131.4468742,0,532,2976,31.73840723,46.97977192,0,257.2,2976,158
HOEM,11/1/04,470.6185068,338.8110921,24.9,1412.7,2880,237.8106249,177.6185054,8.5,727,2880,48.81517362,34.10907165,1.6,151.8,2880,0
HOEM,12/1/04,578.6755042,359.2728169,75.9,1612,2976,285.8206318,184.769645,33.7,830,2976,63.12872977,42.07604512,6.1,333.8,2976,32
HOEM,1/1/05,475.9397515,333.621854,27.5,1389.1,2976,235.1115794,175.7124387,10,711,2976,46.33163641,32.5525632,1.6,132,2976,1
HOEM,2/1/05,290.1604908,286.2733829,0.7,1119.1,2688,145.6163651,155.7867221,0.39,661.1,2688,40.91148071,49.09008999,0.23,297.6,2688,83
HOEM,3/1/05,82.94344745,122.9300713,0,685.1,2976,38.5874194,66.965196,0,385.6,2976,15.90286288,28.88930189,0,195.8,2976,266
HOEM,4/1/05,9.082118049,20.99947493,0,138.8,2880,4.08080555,9.830771772,0,71,2880,1.10898264,2.400842676,0,17.55,2880,1168
HOEM,5/1/05,0.019489247,0.166657322,0,2.6,2976,0.014976478,0.102293363,0,1.46,2976,0.005850134,0.050827932,0,0.79,2976,1959
HOEM,6/1/05,0.000208333,0.006970264,0,0.3,2880,0.001326389,0.011979101,0,0.23,2880,0.000190972,0.001536288,0,0.03,2880,2420
HOEM,7/1/05,0.000235215,0.006076137,0,0.2,2976,0.000766129,0.007770948,0,0.14,2976,5.38E-05,0.000858257,0,0.03,2976,1912
HOEM,8/1/05,2.214448925,7.321385249,0,58.5,2976,1.023709675,3.125290587,0,28.93,2976,0.244428763,0.734089231,0,6.85,2976,1280
HOEM,9/1/05,35.42677084,55.49959286,0,421.8,2880,14.22481944,30.01748037,0,246.6,2880,2.737663196,5.342449629,0,48.07,2880,610
HOEM,10/1/05,200.1717406,238.4491256,0,1008.2,2976,101.4107427,132.179127,0,537.2,2976,17.16103494,21.56815174,0,88.5,2976,113
HOEM,11/1/05,464.1555553,334.3993901,21.9,1308.9,2880,240.5660833,179.863171,9.28,707,2880,45.82356597,32.84770136,1.7,134.5,2880,0
HOEM,12/1/05,605.5996975,372.420864,69.9,1586.2,2975,295.9734586,180.6012654,28.37,801,2975,64.07312606,35.8612122,5.56,157,2975,3
HOEM,1/1/06,528.407964,375.0029804,27.7,1790.4,2976,257.3439853,183.0680616,11.4,890,2976,53.76502017,35.29720914,2.7,165.6,2976,0
HOEM,2/1/06,283.6118676,299.4402071,0,1175.1,2688,135.2587797,149.8427233,0,566.4,2688,40.21644344,42.87786797,0,224.4,2688,175
HOEM,3/1/06,79.6898859,124.5319668,0,998.7,2976,34.56139113,61.42216886,0,509.4,2976,13.7232191,25.44623009,0,235.9,2976,873
HOEM,4/1/06,8.589652789,18.81688139,0,146.5,2880,3.037986114,7.072720676,0,72.2,2880,1.505277777,4.035692603,0,43.8,2880,1479
HOEM,5/1/06,0.027284946,0.183911251,0,2.7,2976,0.011155914,0.083070536,0,1.1,2976,0.002553763,0.022903462,0,0.4,2976,2655
HOEM,6/1/06,0.000451389,0.017176658,0,0.7,2880,0.00071875,0.009463045,0,0.2,2880,0.000961806,0.009706277,0,0.2,2880,2484
HOEM,7/1/06,0.001915323,0.032689436,0,0.9,2976,0.001078629,0.012620346,0,0.35,2976,0.000836694,0.006918897,0,0.17,2976,2776
HOEM,8/1/06,1.780947576,5.549096054,0,41,2976,0.905527555,2.762146495,0,22.86,2976,0.478185484,1.837186032,0,19.11,2976,2089
HOEM,9/1/06,36.35805561,57.850977,0,397.9,2880,15.48383333,25.81593308,0,176.3,2880,7.164472232,16.04996222,0,130.6,2880,1365
HOEM,10/1/06,191.103562,225.4280101,0,980.6,2976,94.23876687,119.995522,0,501.6,2976,31.79454298,38.92406315,0,161.6,2976,166